TimeCDT,TemperatureF,Dew PointF,Humidity,Sea Level PressureIn,VisibilityMPH,Wind Direction,Wind SpeedMPH,Gust SpeedMPH,PrecipitationIn,Events,Conditions,WindDirDegrees,DateUTC
12:15 AM,68.0,51.8,56,29.99,10.0,SSW,10.4,-,N/A,,Clear,200,2013-05-15 05:15:00
12:35 AM,68.0,51.8,56,29.99,10.0,SSW,9.2,-,N/A,,Clear,200,2013-05-15 05:35:00
12:55 AM,66.2,51.8,60,29.99,10.0,SSW,9.2,-,N/A,,Clear,200,2013-05-15 05:55:00
1:15 AM,64.4,50.0,59,30.00,10.0,SSW,9.2,-,N/A,,Clear,200,2013-05-15 06:15:00
1:35 AM,64.4,50.0,59,29.99,10.0,South,9.2,-,N/A,,Clear,190,2013-05-15 06:35:00
1:55 AM,64.4,50.0,59,29.99,10.0,South,9.2,-,N/A,,Clear,190,2013-05-15 06:55:00
2:15 AM,64.4,50.0,59,29.99,10.0,South,9.2,-,N/A,,Clear,190,2013-05-15 07:15:00
2:35 AM,64.4,50.0,59,29.98,10.0,South,11.5,-,N/A,,Clear,190,2013-05-15 07:35:00
2:55 AM,64.4,50.0,59,29.99,10.0,South,9.2,-,N/A,,Clear,190,2013-05-15 07:55:00
3:15 AM,64.4,50.0,59,29.99,10.0,South,9.2,-,N/A,,Clear,190,2013-05-15 08:15:00
3:35 AM,62.6,50.0,63,29.99,10.0,South,10.4,-,N/A,,Clear,190,2013-05-15 08:35:00
3:55 AM,62.6,50.0,63,29.99,10.0,South,10.4,-,N/A,,Clear,190,2013-05-15 08:55:00
4:15 AM,64.4,50.0,59,29.98,10.0,South,11.5,-,N/A,,Clear,190,2013-05-15 09:15:00
4:35 AM,64.4,50.0,59,29.98,10.0,South,11.5,-,N/A,,Clear,190,2013-05-15 09:35:00
4:55 AM,62.6,50.0,63,29.98,10.0,South,11.5,-,N/A,,Clear,190,2013-05-15 09:55:00
5:15 AM,62.6,50.0,63,29.98,10.0,South,11.5,-,N/A,,Clear,190,2013-05-15 10:15:00
5:35 AM,62.6,50.0,63,29.98,10.0,South,11.5,-,N/A,,Clear,190,2013-05-15 10:35:00
5:55 AM,62.6,50.0,63,29.98,10.0,South,10.4,-,N/A,,Clear,190,2013-05-15 10:55:00
6:15 AM,62.6,50.0,63,29.99,10.0,South,9.2,-,N/A,,Clear,190,2013-05-15 11:15:00
6:35 AM,62.6,51.8,68,29.99,10.0,South,8.1,-,N/A,,Clear,190,2013-05-15 11:35:00
6:55 AM,62.6,51.8,68,30.00,10.0,SSW,10.4,-,N/A,,Clear,200,2013-05-15 11:55:00
7:15 AM,64.4,53.6,68,30.00,10.0,SSW,11.5,-,N/A,,Clear,200,2013-05-15 12:15:00
7:35 AM,64.4,53.6,68,30.00,10.0,South,10.4,-,N/A,,Clear,190,2013-05-15 12:35:00
7:55 AM,66.2,55.4,68,30.00,10.0,South,12.7,-,N/A,,Clear,190,2013-05-15 12:55:00
8:15 AM,68.0,57.2,68,29.99,10.0,SSW,15.0,-,N/A,,Clear,200,2013-05-15 13:15:00
8:35 AM,69.8,59.0,68,29.99,10.0,SSW,16.1,-,N/A,,Clear,200,2013-05-15 13:35:00
8:55 AM,69.8,59.0,68,29.99,10.0,SSW,15.0,19.6,N/A,,Clear,210,2013-05-15 13:55:00
9:15 AM,69.8,60.8,73,29.99,10.0,SSW,18.4,23.0,N/A,,Clear,200,2013-05-15 14:15:00
9:35 AM,71.6,60.8,69,29.99,10.0,SSW,15.0,21.9,N/A,,Clear,200,2013-05-15 14:35:00
10:15 AM,73.4,62.6,69,29.99,10.0,SSW,16.1,-,N/A,,Clear,200,2013-05-15 15:15:00
10:35 AM,73.4,62.6,69,29.98,10.0,SSW,16.1,23.0,N/A,,Clear,210,2013-05-15 15:35:00
10:55 AM,73.4,64.4,73,29.99,10.0,SW,17.3,23.0,N/A,,Clear,220,2013-05-15 15:55:00
11:15 AM,75.2,64.4,69,29.99,10.0,SSW,17.3,20.7,N/A,,Scattered Clouds,210,2013-05-15 16:15:00
11:35 AM,73.4,64.4,73,29.98,10.0,SSW,11.5,-,N/A,,Clear,210,2013-05-15 16:35:00
11:55 AM,77.0,64.4,65,29.98,10.0,South,13.8,-,N/A,,Clear,180,2013-05-15 16:55:00
12:15 PM,75.2,64.4,69,29.98,10.0,SSW,10.4,-,N/A,,Scattered Clouds,210,2013-05-15 17:15:00
12:35 PM,75.2,64.4,69,29.97,10.0,SSW,12.7,-,N/A,,Scattered Clouds,210,2013-05-15 17:35:00
12:55 PM,77.0,64.4,65,29.97,10.0,SW,18.4,-,N/A,,Mostly Cloudy,220,2013-05-15 17:55:00
1:15 PM,77.0,64.4,65,29.97,10.0,SW,17.3,-,N/A,,Scattered Clouds,220,2013-05-15 18:15:00
1:35 PM,73.4,64.4,73,29.97,10.0,SSW,15.0,-,N/A,,Mostly Cloudy,200,2013-05-15 18:35:00
1:55 PM,73.4,64.4,73,29.96,10.0,SW,9.2,-,N/A,,Mostly Cloudy,220,2013-05-15 18:55:00
2:15 PM,73.4,64.4,73,29.96,10.0,SSW,12.7,17.3,N/A,,Mostly Cloudy,200,2013-05-15 19:15:00
2:35 PM,73.4,64.4,73,29.95,10.0,SSW,12.7,-,N/A,,Scattered Clouds,210,2013-05-15 19:35:00
2:55 PM,73.4,64.4,73,29.95,10.0,South,10.4,-,N/A,,Mostly Cloudy,180,2013-05-15 19:55:00
3:15 PM,73.4,64.4,73,29.94,10.0,South,11.5,-,N/A,,Scattered Clouds,190,2013-05-15 20:15:00
3:35 PM,71.6,64.4,78,29.95,10.0,SSW,11.5,-,N/A,,Mostly Cloudy,200,2013-05-15 20:35:00
3:55 PM,71.6,64.4,78,29.95,10.0,SSW,10.4,-,N/A,,Light Drizzle,210,2013-05-15 20:55:00
4:35 PM,71.6,64.4,78,29.95,10.0,SW,10.4,-,N/A,,Light Drizzle,220,2013-05-15 21:35:00
4:55 PM,69.8,64.4,83,29.94,10.0,SSW,13.8,18.4,N/A,Rain,Light Rain,210,2013-05-15 21:55:00
5:15 PM,64.4,60.8,88,29.95,10.0,SW,15.0,21.9,N/A,Rain-Thunderstorm,Light Thunderstorms and Rain,220,2013-05-15 22:15:00
5:35 PM,62.6,60.8,94,29.96,7.0,South,10.4,-,0.03,Rain-Thunderstorm,Rain,170,2013-05-15 22:35:00
5:55 PM,62.6,60.8,94,29.94,5.0,SSE,4.6,-,0.12,Rain,Rain,160,2013-05-15 22:55:00
6:15 PM,62.6,62.6,100,29.94,5.0,SE,4.6,-,0.04,Rain,Rain,130,2013-05-15 23:15:00
6:35 PM,62.6,60.8,94,29.93,10.0,ESE,5.8,-,0.05,,Overcast,110,2013-05-15 23:35:00
6:55 PM,62.6,62.6,100,29.93,10.0,ESE,9.2,-,0.05,,Overcast,120,2013-05-15 23:55:00
7:15 PM,62.6,60.8,94,29.92,10.0,ESE,9.2,-,N/A,,Overcast,110,2013-05-16 00:15:00
7:35 PM,62.6,60.8,94,29.92,10.0,ESE,6.9,-,N/A,,Mostly Cloudy,110,2013-05-16 00:35:00
7:55 PM,62.6,60.8,94,29.92,10.0,SE,4.6,-,N/A,,Mostly Cloudy,130,2013-05-16 00:55:00
8:15 PM,62.6,60.8,94,29.93,10.0,SE,5.8,-,N/A,,Overcast,130,2013-05-16 01:15:00
8:35 PM,62.6,62.6,100,29.93,10.0,SE,5.8,-,N/A,,Overcast,130,2013-05-16 01:35:00
8:55 PM,62.6,60.8,94,29.93,10.0,SE,3.5,-,N/A,,Mostly Cloudy,140,2013-05-16 01:55:00
9:15 PM,60.8,60.8,100,29.92,10.0,ESE,4.6,-,N/A,,Scattered Clouds,120,2013-05-16 02:15:00
9:35 PM,60.8,60.8,100,29.92,10.0,ESE,5.8,-,N/A,,Mostly Cloudy,120,2013-05-16 02:35:00
9:55 PM,62.6,60.8,94,29.93,10.0,SE,5.8,-,N/A,,Mostly Cloudy,130,2013-05-16 02:55:00
10:15 PM,62.6,60.8,94,29.92,10.0,SE,8.1,-,N/A,,Scattered Clouds,140,2013-05-16 03:15:00
10:35 PM,62.6,62.6,100,29.91,10.0,SE,6.9,-,N/A,,Clear,130,2013-05-16 03:35:00
10:55 PM,62.6,60.8,94,29.90,10.0,ESE,5.8,-,N/A,,Clear,120,2013-05-16 03:55:00
11:15 PM,62.6,60.8,94,29.88,7.0,ESE,8.1,-,N/A,,Clear,120,2013-05-16 04:15:00
11:35 PM,62.6,62.6,100,29.88,7.0,SE,11.5,-,N/A,,Clear,130,2013-05-16 04:35:00
11:55 PM,62.6,62.6,100,29.89,7.0,SE,9.2,-,N/A,,Clear,130,2013-05-16 04:55:00